EJU42P EDDB-EETN

Flight info

Callsign EJU42P
Flight time 1h 22m
Altitude 33000
Route GERGA3Q/06R GERGA M725 RENKI L132 DEMUR N746 GORPI DCT ANFEV DCT DIPEB DCT ETHUV DCT ADBIB DCT SULUN
Aircraft A320/M-SDE3FGHIRWY/LB1

Departure

Time 2026-05-05 12:55
Airport Berlin Brandenburg Airport (EDDB)

Arrival

Time 2026-05-05 14:18
Airport Lennart Meri Tallinn Airport (EETN)
Time Latitude Longitude Altitude Speed Heading
2026-05-05 12:27 52.36095 13.50812 155 ft 0 kts 69°
2026-05-05 12:42 52.36085 13.50775 155 ft 0 kts 69°
2026-05-05 12:45 52.36081 13.50757 155 ft 3 kts 70°
2026-05-05 12:46 52.36074 13.50725 155 ft 3 kts 72°
2026-05-05 12:46 52.36068 13.50694 155 ft 3 kts 73°
2026-05-05 12:46 52.36063 13.50662 155 ft 3 kts 76°
2026-05-05 12:46 52.36058 13.50630 155 ft 3 kts 78°
2026-05-05 12:47 52.36054 13.50597 155 ft 3 kts 81°
2026-05-05 12:47 52.36051 13.50565 155 ft 3 kts 85°
2026-05-05 12:47 52.36050 13.50532 155 ft 3 kts 94°
2026-05-05 12:47 52.36053 13.50501 155 ft 3 kts 119°
2026-05-05 12:48 52.36061 13.50485 155 ft 1 kts 158°
2026-05-05 12:48 52.36062 13.50484 155 ft 0 kts 158°
2026-05-05 12:50 52.36060 13.50485 155 ft 1 kts 158°
2026-05-05 12:50 52.36027 13.50506 155 ft 8 kts 159°
2026-05-05 12:51 52.35955 13.50552 155 ft 13 kts 159°
2026-05-05 12:51 52.35858 13.50612 155 ft 16 kts 159°
2026-05-05 12:51 52.35753 13.50680 155 ft 13 kts 158°
2026-05-05 12:51 52.35678 13.50629 154 ft 14 kts 246°
2026-05-05 12:52 52.35641 13.50475 154 ft 16 kts 249°
2026-05-05 12:52 52.35595 13.50281 154 ft 20 kts 249°
2026-05-05 12:52 52.35542 13.50057 154 ft 22 kts 249°
2026-05-05 12:52 52.35490 13.49837 154 ft 18 kts 249°
2026-05-05 12:53 52.35443 13.49640 154 ft 20 kts 248°
2026-05-05 12:53 52.35396 13.49436 154 ft 15 kts 248°
2026-05-05 12:53 52.35370 13.49331 154 ft 9 kts 248°
2026-05-05 12:53 52.35330 13.49246 154 ft 11 kts 211°
2026-05-05 12:54 52.35231 13.49475 154 ft 20 kts 98°
2026-05-05 12:54 52.35238 13.49747 154 ft 31 kts 77°
2026-05-05 12:54 52.35384 13.50399 155 ft 105 kts 69°
2026-05-05 12:55 52.35738 13.51916 295 ft 168 kts 69°
2026-05-05 12:55 52.36048 13.53817 1133 ft 178 kts 93°
2026-05-05 12:55 52.35527 13.55638 1830 ft 189 kts 134°
2026-05-05 12:55 52.34433 13.57039 2254 ft 211 kts 143°
2026-05-05 12:56 52.33229 13.58454 3113 ft 213 kts 144°
2026-05-05 12:56 52.32022 13.59881 3995 ft 216 kts 143°
2026-05-05 12:56 52.31108 13.61817 4813 ft 223 kts 108°
2026-05-05 12:56 52.31053 13.64443 5327 ft 242 kts 78°
2026-05-05 12:57 52.31484 13.67143 6109 ft 248 kts 72°
2026-05-05 12:57 52.32034 13.69853 6914 ft 254 kts 70°
2026-05-05 12:57 52.32610 13.72616 7733 ft 259 kts 75°
2026-05-05 12:57 52.32870 13.75570 8397 ft 272 kts 91°
2026-05-05 12:58 52.32809 13.78788 8862 ft 293 kts 94°
2026-05-05 12:58 52.32695 13.82132 9623 ft 302 kts 95°
2026-05-05 12:58 52.32557 13.85589 10419 ft 307 kts 95°
2026-05-05 12:58 52.32413 13.89099 11229 ft 312 kts 96°
2026-05-05 12:59 52.32270 13.92663 12036 ft 316 kts 96°
2026-05-05 12:59 52.32131 13.96281 12840 ft 321 kts 94°
2026-05-05 12:59 52.32362 13.99935 13607 ft 329 kts 74°
2026-05-05 13:00 52.35109 14.05844 14848 ft 342 kts 29°
2026-05-05 13:00 52.37369 14.07248 15020 ft 357 kts
2026-05-05 13:01 52.45202 14.05984 16097 ft 391 kts 348°
2026-05-05 13:01 52.47919 14.05393 16766 ft 395 kts 348°
2026-05-05 13:01 52.50620 14.04818 17407 ft 398 kts 349°
2026-05-05 13:01 52.53377 14.04239 18050 ft 402 kts 349°
2026-05-05 13:02 52.56169 14.03657 18604 ft 406 kts 349°
2026-05-05 13:02 52.58984 14.03073 19137 ft 409 kts 348°
2026-05-05 13:02 52.61818 14.02481 19678 ft 412 kts 348°
2026-05-05 13:02 52.64675 14.01877 20224 ft 415 kts 348°
2026-05-05 13:03 52.67549 14.01264 20753 ft 418 kts 348°
2026-05-05 13:03 52.70448 14.00643 21251 ft 421 kts 348°
2026-05-05 13:03 52.72382 14.00228 21590 ft 423 kts 348°
2026-05-05 13:03 52.75311 13.99601 22115 ft 426 kts 348°
2026-05-05 13:04 52.78282 13.98963 22355 ft 436 kts 348°
2026-05-05 13:04 52.81329 13.98306 22510 ft 447 kts 348°
2026-05-05 13:04 52.85483 13.97580 22725 ft 461 kts 354°
2026-05-05 13:04 52.87673 13.97688 22943 ft 468 kts
2026-05-05 13:05 52.90869 13.98570 23312 ft 476 kts 11°
2026-05-05 13:05 52.94027 14.00342 23647 ft 484 kts 20°
2026-05-05 13:05 52.97015 14.03024 23943 ft 492 kts 31°
2026-05-05 13:05 52.99800 14.06388 24235 ft 496 kts 34°
2026-05-05 13:06 53.02572 14.09816 24554 ft 498 kts 34°
2026-05-05 13:06 53.05355 14.13262 24861 ft 500 kts 34°
2026-05-05 13:06 53.08161 14.16743 25157 ft 503 kts 34°
2026-05-05 13:06 53.10972 14.20233 25465 ft 505 kts 34°
2026-05-05 13:07 53.13791 14.23737 25758 ft 507 kts 34°
2026-05-05 13:07 53.16622 14.27263 26041 ft 510 kts 34°
2026-05-05 13:07 53.19482 14.30832 26295 ft 513 kts 34°
2026-05-05 13:07 53.22343 14.34414 26569 ft 515 kts 34°
2026-05-05 13:08 53.25215 14.38011 26931 ft 515 kts 33°
2026-05-05 13:08 53.28175 14.41202 27340 ft 510 kts 25°
2026-05-05 13:08 53.31394 14.43785 27754 ft 505 kts 19°
2026-05-05 13:08 53.34608 14.46120 28177 ft 504 kts 19°
2026-05-05 13:09 53.37779 14.48429 28633 ft 503 kts 19°
2026-05-05 13:09 53.40987 14.50774 29014 ft 503 kts 19°
2026-05-05 13:09 53.44202 14.53138 29419 ft 503 kts 19°
2026-05-05 13:09 53.47414 14.55503 29857 ft 502 kts 18°
2026-05-05 13:10 53.50610 14.57858 30300 ft 501 kts 18°
2026-05-05 13:10 53.53797 14.60212 30680 ft 500 kts 18°
2026-05-05 13:10 53.56981 14.62564 31044 ft 499 kts 18°
2026-05-05 13:10 53.60162 14.64912 31444 ft 498 kts 18°
2026-05-05 13:11 53.63293 14.67227 31808 ft 497 kts 19°
2026-05-05 13:11 53.66488 14.69598 32195 ft 495 kts 19°
2026-05-05 13:11 53.69638 14.71943 32587 ft 494 kts 19°
2026-05-05 13:11 53.72747 14.74263 32933 ft 494 kts 19°
2026-05-05 13:12 53.79028 14.78946 32918 ft 493 kts 19°
2026-05-05 13:12 53.85304 14.83649 32932 ft 493 kts 19°
2026-05-05 13:13 53.91599 14.88381 32922 ft 494 kts 19°
2026-05-05 13:13 53.97896 14.93112 32928 ft 494 kts 19°
2026-05-05 13:14 54.04142 14.97834 32930 ft 494 kts 19°
2026-05-05 13:14 54.10440 15.02623 32925 ft 496 kts 20°
2026-05-05 13:15 54.16747 15.07400 32930 ft 497 kts 19°
2026-05-05 13:15 54.23071 15.12177 32937 ft 497 kts 19°
2026-05-05 13:16 54.29391 15.16982 32936 ft 497 kts 20°
2026-05-05 13:16 54.35706 15.21820 32933 ft 497 kts 20°
2026-05-05 13:17 54.42024 15.26663 32936 ft 497 kts 20°
2026-05-05 13:17 54.48347 15.31545 33256 ft 498 kts 20°
2026-05-05 13:18 54.51501 15.33994 33664 ft 497 kts 20°
2026-05-05 13:18 54.54651 15.36443 34072 ft 496 kts 20°
2026-05-05 13:18 54.57789 15.38888 34421 ft 494 kts 21°
2026-05-05 13:18 54.60875 15.41296 34758 ft 492 kts 21°
2026-05-05 13:19 54.63995 15.43731 35074 ft 491 kts 20°
2026-05-05 13:19 54.67109 15.46159 35374 ft 491 kts 20°
2026-05-05 13:19 54.70219 15.48589 35662 ft 490 kts 20°
2026-05-05 13:19 54.73328 15.51030 35951 ft 490 kts 21°
2026-05-05 13:20 54.76428 15.53471 36227 ft 489 kts 21°
2026-05-05 13:20 54.79531 15.55915 36516 ft 489 kts 20°
2026-05-05 13:20 54.82624 15.58351 36783 ft 488 kts 20°
2026-05-05 13:20 54.85713 15.60791 36921 ft 488 kts 20°
2026-05-05 13:21 54.91697 15.66398 36941 ft 492 kts 33°
2026-05-05 13:21 54.96751 15.74521 36940 ft 496 kts 44°
2026-05-05 13:22 55.01578 15.83126 36942 ft 496 kts 43°
2026-05-05 13:22 55.06374 15.91696 36945 ft 496 kts 44°
2026-05-05 13:23 55.11195 16.00329 36942 ft 497 kts 44°
2026-05-05 13:23 55.16016 16.09006 36940 ft 497 kts 44°
2026-05-05 13:24 55.20807 16.17659 36938 ft 497 kts 44°
2026-05-05 13:24 55.25615 16.26368 36964 ft 497 kts 44°
2026-05-05 13:25 55.30409 16.35106 36957 ft 497 kts 44°
2026-05-05 13:25 55.35195 16.43879 36947 ft 497 kts 44°
2026-05-05 13:26 55.39981 16.52659 36943 ft 497 kts 44°
2026-05-05 13:26 55.44761 16.61460 36957 ft 497 kts 44°
2026-05-05 13:27 55.49535 16.70290 36948 ft 497 kts 44°
2026-05-05 13:27 55.54312 16.79139 36942 ft 497 kts 44°
2026-05-05 13:28 55.59077 16.88002 36936 ft 497 kts 44°
2026-05-05 13:28 55.63829 16.96891 36935 ft 497 kts 44°
2026-05-05 13:29 55.68556 17.05760 36941 ft 498 kts 44°
2026-05-05 13:29 55.73303 17.14709 36924 ft 498 kts 45°
2026-05-05 13:30 55.78054 17.23702 36929 ft 498 kts 45°
2026-05-05 13:30 55.82851 17.32605 36920 ft 498 kts 43°
2026-05-05 13:31 55.87725 17.41381 36942 ft 498 kts 43°
2026-05-05 13:31 55.92593 17.50167 36931 ft 498 kts 43°
2026-05-05 13:32 55.97400 17.58959 36918 ft 498 kts 43°
2026-05-05 13:32 56.02230 17.67867 36915 ft 498 kts 44°
2026-05-05 13:33 56.07041 17.76782 36912 ft 498 kts 44°
2026-05-05 13:33 56.11858 17.85725 36940 ft 498 kts 43°
2026-05-05 13:34 56.16666 17.94676 36928 ft 498 kts 44°
2026-05-05 13:34 56.21394 18.03687 36911 ft 499 kts 45°
2026-05-05 13:35 56.26035 18.12983 36907 ft 500 kts 46°
2026-05-05 13:35 56.30653 18.22366 36932 ft 500 kts 46°
2026-05-05 13:36 56.35288 18.31744 36925 ft 501 kts 46°
2026-05-05 13:36 56.39937 18.41114 36923 ft 501 kts 46°
2026-05-05 13:37 56.44581 18.50504 36924 ft 501 kts 46°
2026-05-05 13:37 56.49213 18.59936 36928 ft 501 kts 46°
2026-05-05 13:38 56.53846 18.69396 36954 ft 501 kts 46°
2026-05-05 13:38 56.58447 18.78818 36944 ft 502 kts 46°
2026-05-05 13:39 56.63066 18.88310 36936 ft 502 kts 46°
2026-05-05 13:39 56.67675 18.97850 36902 ft 502 kts 46°
2026-05-05 13:40 56.72277 19.07430 36905 ft 503 kts 46°
2026-05-05 13:40 56.76875 19.17030 36922 ft 503 kts 46°
2026-05-05 13:41 56.81486 19.26670 36920 ft 503 kts 46°
2026-05-05 13:41 56.86085 19.36322 36915 ft 503 kts 46°
2026-05-05 13:42 56.90647 19.45931 36917 ft 504 kts 47°
2026-05-05 13:42 56.95230 19.55654 36944 ft 504 kts 47°
2026-05-05 13:43 56.99809 19.65399 36929 ft 504 kts 47°
2026-05-05 13:43 57.04386 19.75179 36923 ft 504 kts 47°
2026-05-05 13:44 57.08924 19.84913 36918 ft 504 kts 47°
2026-05-05 13:44 57.13486 19.94722 36892 ft 504 kts 47°
2026-05-05 13:45 57.18043 20.04573 36898 ft 504 kts 47°
2026-05-05 13:45 57.22577 20.14431 36900 ft 504 kts 47°
2026-05-05 13:46 57.27109 20.24333 36900 ft 504 kts 47°
2026-05-05 13:46 57.31629 20.34236 36902 ft 504 kts 47°
2026-05-05 13:47 57.36119 20.44106 36918 ft 504 kts 47°
2026-05-05 13:47 57.40629 20.54063 36921 ft 505 kts 47°
2026-05-05 13:48 57.45131 20.64064 36912 ft 505 kts 48°
2026-05-05 13:48 57.49624 20.74091 36908 ft 505 kts 48°
2026-05-05 13:49 57.54124 20.84147 36909 ft 505 kts 48°
2026-05-05 13:49 57.58617 20.94212 36921 ft 505 kts 48°
2026-05-05 13:50 57.63099 21.04335 36912 ft 506 kts 48°
2026-05-05 13:50 57.67574 21.14499 36910 ft 507 kts 48°
2026-05-05 13:51 57.71302 21.22960 36907 ft 507 kts 48°
2026-05-05 13:51 57.75782 21.33159 36907 ft 507 kts 48°
2026-05-05 13:52 57.80973 21.45067 36931 ft 508 kts 49°
2026-05-05 13:52 57.83206 21.50211 36790 ft 508 kts 49°
2026-05-05 13:52 57.84712 21.53689 36628 ft 508 kts 49°
2026-05-05 13:53 57.86909 21.58769 36470 ft 507 kts 49°
2026-05-05 13:53 57.89164 21.63986 36275 ft 508 kts 49°
2026-05-05 13:53 57.91357 21.69070 36008 ft 508 kts 49°
2026-05-05 13:53 57.93580 21.74233 35754 ft 508 kts 49°
2026-05-05 13:54 57.95803 21.79416 35496 ft 508 kts 49°
2026-05-05 13:54 57.98021 21.84608 35246 ft 508 kts 49°
2026-05-05 13:54 58.00234 21.89801 35030 ft 509 kts 49°
2026-05-05 13:54 58.02453 21.95014 34764 ft 511 kts 49°
2026-05-05 13:55 58.04682 22.00259 34530 ft 510 kts 49°
2026-05-05 13:55 58.06898 22.05486 34289 ft 510 kts 49°
2026-05-05 13:55 58.09122 22.10735 34051 ft 510 kts 49°
2026-05-05 13:55 58.11369 22.15935 33806 ft 510 kts 47°
2026-05-05 13:56 58.13676 22.21038 33519 ft 510 kts 46°
2026-05-05 13:56 58.16029 22.26085 33243 ft 511 kts 45°
2026-05-05 13:56 58.18402 22.31108 32970 ft 512 kts 45°
2026-05-05 13:56 58.20786 22.36159 32738 ft 513 kts 45°
2026-05-05 13:57 58.23125 22.41175 32468 ft 515 kts 46°
2026-05-05 13:57 58.25486 22.46305 32194 ft 517 kts 46°
2026-05-05 13:57 58.27837 22.51471 31929 ft 518 kts 46°
2026-05-05 13:57 58.30181 22.56670 31672 ft 519 kts 46°
2026-05-05 13:58 58.32528 22.61891 31416 ft 519 kts 46°
2026-05-05 13:58 58.34884 22.67126 31156 ft 520 kts 46°
2026-05-05 13:58 58.37243 22.72358 30906 ft 521 kts 46°
2026-05-05 13:58 58.39609 22.77608 30430 ft 522 kts 46°
2026-05-05 13:59 58.44352 22.88162 29137 ft 526 kts 46°
2026-05-05 13:59 58.46737 22.93488 28434 ft 529 kts 46°
2026-05-05 14:00 58.51495 23.04160 27092 ft 532 kts 46°
2026-05-05 14:00 58.53898 23.09576 26413 ft 534 kts 46°
2026-05-05 14:00 58.56299 23.15002 25770 ft 535 kts 46°
2026-05-05 14:00 58.58708 23.20441 25147 ft 536 kts 46°
2026-05-05 14:01 58.61144 23.25874 24536 ft 538 kts 46°
2026-05-05 14:01 58.63604 23.31307 23962 ft 537 kts 45°
2026-05-05 14:01 58.66054 23.36695 23374 ft 534 kts 45°
2026-05-05 14:01 58.68483 23.42047 22678 ft 530 kts 45°
2026-05-05 14:02 58.70890 23.47381 21997 ft 525 kts 46°
2026-05-05 14:02 58.73266 23.52683 21333 ft 520 kts 46°
2026-05-05 14:02 58.75616 23.57946 20694 ft 515 kts 46°
2026-05-05 14:02 58.77938 23.63164 20065 ft 511 kts 46°
2026-05-05 14:03 58.80239 23.68358 19438 ft 506 kts 46°
2026-05-05 14:03 58.82512 23.73501 18833 ft 502 kts 46°
2026-05-05 14:03 58.84767 23.78614 18273 ft 498 kts 46°
2026-05-05 14:03 58.87003 23.83692 17611 ft 493 kts 46°
2026-05-05 14:04 58.89215 23.88718 16939 ft 488 kts 46°
2026-05-05 14:04 58.91404 23.93696 16283 ft 483 kts 47°
2026-05-05 14:04 58.93543 23.98572 15647 ft 478 kts 47°
2026-05-05 14:04 58.95689 24.03468 15075 ft 473 kts 47°
2026-05-05 14:05 58.97687 24.08529 14718 ft 473 kts 55°
2026-05-05 14:05 58.99399 24.13977 14351 ft 471 kts 57°
2026-05-05 14:05 59.01085 24.19408 13985 ft 468 kts 57°
2026-05-05 14:05 59.02762 24.24819 13618 ft 465 kts 58°
2026-05-05 14:06 59.04388 24.30073 13177 ft 453 kts 57°
2026-05-05 14:06 59.05991 24.35255 12811 ft 441 kts 58°
2026-05-05 14:06 59.07551 24.40305 12417 ft 430 kts 58°
2026-05-05 14:06 59.09075 24.45243 11943 ft 422 kts 58°
2026-05-05 14:07 59.10570 24.50111 11429 ft 416 kts 58°
2026-05-05 14:07 59.12036 24.54908 10912 ft 409 kts 58°
2026-05-05 14:07 59.13478 24.59629 10420 ft 403 kts 58°
2026-05-05 14:07 59.14878 24.64210 9936 ft 397 kts 58°
2026-05-05 14:08 59.16280 24.68809 9424 ft 392 kts 58°
2026-05-05 14:08 59.17663 24.73355 8879 ft 387 kts 58°
2026-05-05 14:08 59.19024 24.77837 8361 ft 381 kts 58°
2026-05-05 14:08 59.20366 24.82269 7834 ft 376 kts 58°
2026-05-05 14:09 59.21688 24.86635 7317 ft 372 kts 58°
2026-05-05 14:09 59.22991 24.90953 6914 ft 364 kts 58°
2026-05-05 14:09 59.24232 24.95097 6955 ft 342 kts 58°
2026-05-05 14:09 59.25395 24.98990 6937 ft 324 kts 58°
2026-05-05 14:10 59.26551 25.02840 6191 ft 332 kts 58°
2026-05-05 14:10 59.27705 25.06679 5609 ft 320 kts 58°
2026-05-05 14:10 59.28789 25.10304 5092 ft 307 kts 58°
2026-05-05 14:10 59.29843 25.13832 4581 ft 295 kts 58°
2026-05-05 14:11 59.30860 25.17230 4049 ft 284 kts 58°
2026-05-05 14:11 59.31977 25.20317 3528 ft 271 kts 42°
2026-05-05 14:11 59.33435 25.22485 3012 ft 258 kts 24°
2026-05-05 14:11 59.35083 25.23623 2500 ft 255 kts
2026-05-05 14:12 59.36810 25.23626 2209 ft 241 kts 346°
2026-05-05 14:12 59.38319 25.22633 2189 ft 217 kts 328°
2026-05-05 14:12 59.39467 25.21081 2192 ft 186 kts 314°
2026-05-05 14:12 59.40265 25.19307 2205 ft 165 kts 302°
2026-05-05 14:13 59.40800 25.17401 2219 ft 155 kts 291°
2026-05-05 14:13 59.41104 25.15441 2203 ft 148 kts 281°
2026-05-05 14:13 59.41197 25.13450 2200 ft 146 kts 270°
2026-05-05 14:13 59.41207 25.11462 2224 ft 146 kts 271°
2026-05-05 14:14 59.41218 25.09481 2211 ft 144 kts 271°
2026-05-05 14:14 59.41228 25.07513 2182 ft 145 kts 271°
2026-05-05 14:14 59.41238 25.05529 2058 ft 146 kts 271°
2026-05-05 14:14 59.41248 25.03541 1879 ft 143 kts 271°
2026-05-05 14:15 59.41256 25.01683 1709 ft 130 kts 271°
2026-05-05 14:15 59.41269 24.99966 1541 ft 125 kts 272°
2026-05-05 14:15 59.41287 24.98276 1379 ft 122 kts 271°
2026-05-05 14:15 59.41289 24.96623 1216 ft 121 kts 271°
2026-05-05 14:16 59.41290 24.94965 1011 ft 123 kts 271°
2026-05-05 14:16 59.41291 24.93290 799 ft 122 kts 271°
2026-05-05 14:16 59.41295 24.91644 653 ft 119 kts 272°
2026-05-05 14:16 59.41304 24.90005 540 ft 120 kts 272°
2026-05-05 14:17 59.41312 24.88382 409 ft 118 kts 273°
2026-05-05 14:17 59.41317 24.86782 278 ft 116 kts 272°
2026-05-05 14:17 59.41321 24.85199 153 ft 113 kts 271°
2026-05-05 14:17 59.41326 24.83879 143 ft 76 kts 270°
2026-05-05 14:18 59.41332 24.83121 140 ft 42 kts 272°
2026-05-05 14:18 59.41353 24.82739 138 ft 20 kts 287°
2026-05-05 14:18 59.41403 24.82503 139 ft 18 kts 297°
2026-05-05 14:18 59.41468 24.82280 139 ft 19 kts 299°
2026-05-05 14:19 59.41503 24.82028 139 ft 20 kts 270°
2026-05-05 14:19 59.41502 24.81755 139 ft 20 kts 270°
2026-05-05 14:19 59.41503 24.81473 139 ft 21 kts 271°
2026-05-05 14:19 59.41505 24.81270 139 ft 14 kts 275°
2026-05-05 14:20 59.41584 24.81179 139 ft 16 kts 356°
2026-05-05 14:20 59.41664 24.81080 139 ft 9 kts 275°
2026-05-05 14:20 59.41621 24.81038 139 ft 2 kts 180°
2026-05-05 14:20 59.41592 24.81038 139 ft 2 kts 180°